www.srh.weather.gov   
NOAA logo - Click to go to the NOAA homepage   NWS logo
Regional Weather Roundup
Enter Your "City, ST" or zip code   
Current Version              Previous Version:    01  02  03  04  05  06  07  08  09  10  11  12  13  14  15  16  17  18  19  20  21  22  23  24  25  26  27  28  29  30  
   31  32  33  34  35  36  37  38  39  40  41  42  43  44  45  46  47  48  49  50  51  52  53  54  55  56  57  58  59  60  
[Printable]
689
ASUS43 KGLD 010159
RWRGLD

GOODLAND FORECAST AREA HOURLY WEATHER ROUNDUP
NATIONAL WEATHER SERVICE GOODLAND KS
800 PM MDT THU JUL 31 2014

...OFFICIAL OBSERVATIONS...

CITY           SKY/WX    TMP DP  RH WIND       PRES   REMARKS
GOODLAND KS    CLEAR     77  45  32 CALM      30.14S
HILL CITY KS   MOCLDY    83  52  34 CALM      30.03S
IMPERIAL NEB   CLEAR     77  59  53 N3        30.10R
MCCOOK NEB     MOCLDY    79  55  43 N6        30.06R
AKRON CO       CLEAR     75  47  36 SE3       30.20R
BURLINGTON CO  CLEAR     70  54  56 S6        30.18R
LIMON CO       PTCLDY    67  49  52 SW10      30.26R
$$

...UNOFFICIAL OBSERVATIONS...

CITY           SKY/WX    TMP DP  RH WIND       PRES   REMARKS
COLBY KS       CLEAR     75  55  50 CALM      30.11R
GOVE KS          N/A     78  32  18 MISG        N/A
NORTON KS      CLOUDY    79  48  34 N6        30.03S
WAKEENEY KS      N/A     81  46  28 MISG        N/A
TRENTON NEB      N/A     79  32  18 CALM        N/A
KIT CARSON CO    N/A     73  53  50 N5          N/A
YUMA CO          N/A     77  54  44 CALM        N/A
$$



688
ASUS43 KTOP 010159
RWRKS

WEATHER ROUNDUP FOR KANSAS
NATIONAL WEATHER SERVICE GOODLAND KS
900 PM CDT THU JUL 31 2014

NOTE:  "FAIR" INDICATES FEW OR NO CLOUDS BELOW 12,000 FEET WITH NO
SIGNIFICANT WEATHER AND/OR OBSTRUCTIONS TO VISIBILITY.

KSZ001>006-013>018-027>032-041>047-010300-
NORTHWEST KANSAS

CITY           SKY/WX    TMP DP  RH WIND       PRES   REMARKS
GOODLAND       CLEAR     77  45  32 CALM      30.14S
HAYS           CLEAR     75  55  50 S10       30.05S
HILL CITY      MOCLDY    83  52  34 CALM      30.03S
RUSSELL        PTCLDY    76  58  53 S9        30.03R
$$

KSZ061>065-074>080-084>089-010300-
SOUTHWEST KANSAS

CITY           SKY/WX    TMP DP  RH WIND       PRES   REMARKS
DODGE CITY     CLEAR     71  58  63 SE7       30.10S
ELKHART          N/A     70  56  61 E2          N/A
GARDEN CITY    PTCLDY    72  60  66 W5        30.11F
GREAT BEND       N/A     73  61  64 S7        30.05S
LIBERAL        PTCLDY    75  52  43 E3        30.15R
$$

KSZ066>073-081>083-090>101-010300-
SOUTHEAST KANSAS

CITY           SKY/WX    TMP DP  RH WIND       PRES   REMARKS
CHANUTE        CLEAR     69  61  75 SE3       30.04F
COFFEYVILLE    PTCLDY    74  68  81 S6        30.04R
HUTCHINSON     CLEAR     71  56  58 SE7       30.05S
NEWTON         CLEAR     73  54  49 SW6       30.09R
PARSONS        CLEAR     70  63  78 CALM      30.05S
WICHITA INTL   PTCLDY    73  56  54 SE6       30.05R
WICHITA JABRA  CLEAR     74  57  55 S6        30.05S
WINFIELD       CLEAR     75  63  66 SE3       30.06S
$$

KSZ007>012-019>026-033>040-048>060-102>105-010300-
NORTHEAST KANSAS

CITY           SKY/WX    TMP DP  RH WIND       PRES   REMARKS
CONCORDIA      CLEAR     75  56  51 S10       30.00S
EMPORIA        CLEAR     71  58  63 SE6       30.04F
LAWRENCE       PTCLDY    71  63  75 NE5       30.03S
MANHATTAN      CLEAR     75  58  55 CALM      30.02R
OLATHE IND     PTCLDY    75  58  55 SE6       30.05S
OLATHE EXE     PTCLDY    74  59  59 SE5       30.04S
SALINA         CLEAR     76  51  41 S9        30.02S
TOPEKA BILLARD PTCLDY    76  58  53 CALM      30.03R
TOPEKA FORBES  CLEAR     74  57  55 CALM      30.03S
$$



National Weather Service
Disclaimer
Last Modified: August 31, 2005
Privacy Policy